Home > Weather > Brussels > Past weeks

Flag for Belgium Weather for the Past 2 Weeks in Brussels, Belgium

Now
45 °F

Clear.


Feels Like: 36 °F
Forecast: 45 / 50 °F
Wind: 21 mph from South

Location: Brussels National Airport

Current Time: Feb 7, 2016 at 10:41:00 PM

Latest Report: Feb 7, 2016 at 9:50 PM


Visibility: 10 mi

Pressure: 29.53 "Hg

Humidity: 71%

Dew point: 36 °F

Location of BrusselsLocation

Historic Weather in Brussels — Graph

°F

Brussels Temperature Yesterday

Maximum temperature yesterday: 54 °F (at 10:50 PM)
Minimum temperature yesterday: 46 °F (at 2:50 AM)
Average temperature yesterday: 50 °F

High & Low Weather Summary for the Past Weeks

 TemperatureHumidityPressure
High57 °F (Jan 25, 12:50 PM)100% (Jan 24, 1:50 PM)30.51 "Hg (Jan 24, 1:50 PM)
Low37 °F (Jan 28, 6:50 PM)44% (Jan 25, 1:20 PM)29.36 "Hg (Feb 7, 3:50 AM)
Average47 °F84%30.06 "Hg
* Reported Jan 23 9:20 PM — Feb 7 9:20 PM, Brussels, Weather by CustomWeather, © 2016

Note: Actual official high and low records may vary slightly from our data, if they occured in-between our weather recording intervals... More about our weather records

Advertising

Brussels Weather History for the Previous 24 Hours

 ConditionsComfort  
Time TempWeatherWind HumidityBarometerVisibility
9:20 PM
Sun, Feb 7
45 °FClear.21 mph66%29.56 "Hg10 mi
8:50 PM45 °FClear.18 mph66%29.56 "Hg10 mi
8:20 PM45 °FClear.21 mph66%29.56 "Hg10 mi
7:50 PM46 °FClear.18 mph62%29.59 "Hg10 mi
7:20 PM45 °FClear.21 mph66%29.59 "Hg10 mi
6:50 PM46 °FClear.18 mph62%29.59 "Hg10 mi
6:20 PM46 °FClear.17 mph62%29.59 "Hg10 mi
5:50 PM46 °FPassing clouds.17 mph66%29.59 "HgN/A
5:20 PM46 °FPassing clouds.18 mph66%29.59 "HgN/A
4:50 PM46 °FPassing clouds.18 mph62%29.59 "HgN/A
4:20 PM46 °FPassing clouds.21 mph62%29.59 "HgN/A
3:50 PM48 °FPassing clouds.20 mph62%29.59 "HgN/A
3:20 PM46 °FPassing clouds.18 mph66%29.59 "HgN/A
2:50 PM46 °FScattered clouds.22 mph66%29.56 "HgN/A
2:20 PM46 °FScattered clouds.22 mph66%29.56 "HgN/A
1:50 PM48 °FScattered clouds.20 mph66%29.56 "HgN/A
1:20 PM46 °FBroken clouds.18 mph66%29.56 "HgN/A
12:50 PM46 °FBroken clouds.18 mph71%29.56 "HgN/A
12:20 PM46 °FBroken clouds.22 mph71%29.53 "HgN/A
11:50 AM46 °FPartly sunny.17 mph76%29.53 "HgN/A
11:20 AM46 °FScattered clouds.18 mph76%29.53 "HgN/A
10:50 AM46 °FScattered clouds.16 mph76%29.50 "HgN/A
10:20 AM46 °FPassing clouds.15 mph76%29.50 "HgN/A
9:50 AM45 °FScattered clouds.14 mph87%29.50 "HgN/A
9:20 AM45 °FPassing clouds.13 mph87%29.50 "HgN/A
8:50 AM45 °FPassing clouds.14 mph87%29.47 "HgN/A
8:20 AM45 °FScattered clouds.9 mph87%29.47 "HgN/A
7:50 AM45 °FPassing clouds.10 mph93%29.45 "HgN/A
7:20 AM45 °FLight rain. Partly cloudy.12 mph87%29.45 "HgN/A
6:50 AM45 °FLight rain. Partly cloudy.13 mph87%29.42 "HgN/A
6:20 AM46 °FRain. Partly cloudy.16 mph87%29.39 "Hg5 mi
5:50 AM48 °FRain. Passing clouds.22 mph82%29.39 "HgN/A
5:20 AM50 °FLight rain. Passing clouds.22 mph76%29.36 "HgN/A
4:50 AM52 °FLight rain. Passing clouds.21 mph67%29.36 "HgN/A
4:20 AM52 °FPassing clouds.18 mph67%29.36 "HgN/A
3:50 AM52 °FPassing clouds.21 mph62%29.36 "HgN/A
3:20 AM52 °FLight rain. Passing clouds.18 mph62%29.39 "HgN/A
2:50 AM52 °FClear.20 mph62%29.39 "Hg10 mi
2:20 AM54 °FClear.23 mph58%29.39 "Hg10 mi
1:50 AM52 °FClear.21 mph62%29.42 "Hg10 mi
1:20 AM54 °FClear.21 mph58%29.42 "Hg10 mi
12:50 AM52 °FClear.23 mph62%29.45 "Hg10 mi
11:50 PM
Sat, Feb 6
54 °FClear.23 mph58%29.45 "Hg10 mi
11:20 PM54 °FClear.20 mph58%29.47 "Hg10 mi
10:50 PM54 °FPassing clouds.17 mph58%29.47 "HgN/A
Weather by CustomWeather, © 2016

See weather overviewHow to use our weather pages